Hourly Data Report for August 08, 2020

OTTAWA INTL A
ONTARIO
Current Station Operator: NAVCAN

45°19'00.000" N
75°40'00.000" W
114.90 m
6106001
71628
YOW

Download Data

Hourly Data (August 2020)
Hourly Data Report for August 8, 2020
TIME
LST
Temp Definition
°C
Dew Point Definition
°C
Rel Hum Definition
%
Precip. Amount Definition
mm

Wind Dir Definition
10's deg

Wind Spd Definition
km/h
Visibility Definition
km
Stn Press Definition
kPa
Hmdx Definition


Wind Chill Definition


Weather Definition


00:00 18.2 14.9 81   30 3 24.1 100.72     LegendNANA
01:00 15.5 13.0 85   6 7 24.1 100.74     Clear
02:00 15.6 13.9 89   2 3 24.1 100.75     LegendNANA
03:00 15.1 14.5 96   4 4 24.1 100.75     LegendNANA
04:00 15.1 14.3 95   7 7 24.1 100.71     Clear
05:00 14.1 13.7 98   27 4 24.1 100.74     LegendNANA
06:00 15.8 15.3 97   10 4 24.1 100.76     LegendNANA
07:00 18.9 16.1 84   5 9 24.1 100.77     Clear
08:00 21.5 16.9 75   10 5 24.1 100.78 27   LegendNANA
09:00 23.6 16.2 62   32 5 24.1 100.78 28   LegendNANA
10:00 25.4 16.1 56   21 7 24.1 100.78 30   Clear
11:00 26.0 14.8 50   36 2 24.1 100.74 30   LegendNANA
12:00 27.2 13.1 41   24 4 24.1 100.69 30   LegendNANA
13:00 28.4 13.4 39   8 4 24.1 100.64 31   Mainly Clear
14:00 27.0 14.7 46   20 7 24.1 100.59 31   LegendNANA
15:00 27.3 14.6 45   27 10 24.1 100.53 31   LegendNANA
16:00 27.6 13.8 42   25 4 24.1 100.45 31   Mostly Cloudy
17:00 28.5 14.2 41   27 7 24.1 100.40 32   LegendNANA
18:00 26.7 15.4 49   29 4 24.1 100.39 31   LegendNANA
19:00 23.8 17.1 66   14 5 24.1 100.39 29   Mostly Cloudy
20:00 23.3 16.4 65   19 6 24.1 100.41 28   LegendNANA
21:00 23.1 16.5 66   20 7 24.1 100.45 28   LegendNANA
22:00 21.5 16.6 73   18 9 24.1 100.39 27   Mostly Cloudy
23:00 20.5 16.7 79   18 9 24.1 100.37 26   LegendNANA

Notes on Data Quality.

Legend

  • E = Estimated
  • M = Missing
  • NA = Not Available*
  • [empty] = Indicates an unobserved value
Date modified: